Погода в Пуэрто-Мадрине

Аргентина     42°45′26″S   65°04′40″W
темп.,
°C
ветер,
м/с
пор.,
м/с
влажн.,
%
обл.,
%
осадки,
мм/ч
давл.,
гПа
погр.,
м
12 мая, ср
ср1200:00+13сз4544100 0.0 100982
03:00+14зсз3339100 0.0 100939
06:00+14з22395 0.0 100911
09:00+15зюз4432100 0.0 101033
12:00+18юз572781 0.0 1011202
15:00+20юз682485 0.0 1011565
18:00+18юз56376 0.0 101175
21:00+15ююз23495 0.0 101314
13 мая, чт
чт1300:00+14з224986 0.0 101412
03:00+13зюз2250100 0.0 101414
06:00+13сз1153100 0.0 101411
09:00+14с3349100 0.0 101622
12:00+16ссв4548100 0.0 1016188
15:00+17ссв5649100 0.0 1015345
18:00+15св566392 0.0 101584
21:00+13ссв467299 0.0 1016104
14 мая, пт
пт1400:00+13с337497 0.0 101653
03:00+12ссз1170100 0.0 101636
06:00+12сз1157100 0.0 101536
09:00+13зсз2249100 0.0 101540
12:00+15сз224090 0.0 1015120
15:00+18с3435100 0.0 1013279
18:00+16ссв44420 0.0 101229
21:00+14с58600 0.0 1012106
15 мая, сб
сб1500:00+15зюз916434 0.0 1013221
03:00+13ююз713610 0.0 1016326
06:00+11юз610700 0.0 1017217
09:00+11зюз614590 0.0 1018343
12:00+15юз811430 0.0 1019819
15:00+17зюз79400 0.0 1018913
18:00+15юз574547 0.0 1018111
21:00+13юз4552100 0.0 1020102
16 мая, вс
вс1600:00+12юз455666 0.0 1020113
03:00+11юз4555100 0.0 1021113
06:00+10ююз5660100 0.0 1021144
09:00+9ююз57705 0.0 1022202
12:00+12ююз67690 0.0 1023647
15:00+13ююз78551 0.0 10231251
18:00+12ю68581 0.0 1023628
21:00+11ююз576366 0.0 1024622